Tracking 35331 objects as of 14-Sep-2026
HD Live streaming from Space Station
objects crossing your sky now

DELTA 2 DEB

Track DELTA 2 DEB now!


NORAD ID: 28549
Int'l Code: 2000-017E
Launch date: March 25, 2000
Source: United States (US)
Launch site: AIR FORCE WESTERN TEST RANGE (AFWTR)

Note: This is SATELLITE DEBRIS
Your satellite tracking list
Your tracking list is empty




NASA's NSSDC Master Catalog

Two Line Element Set (TLE):
1 28549U 00017E   12121.01063737 -.00000143  00000-0  00000+0 0  9998
2 28549  92.8731 222.7905 7618277 139.8275 313.3119  1.68730734 50005
Source of the keplerian elements: AFSPC